| time (UTC) | temp C | wind direction | speed KPH | gust KPH | rain 1hr cm | rain 24hr cm | rain mn cm | humidity % | barometer mb |
| 20260504001847 | 31 | 130 | 3.2 | 8.0 | 0.00 | 0.00 | 0.00 | 38 | 1008.1 |
| 20260504001620 | 30 | 131 | 0.0 | 8.0 | 0.00 | 0.00 | 0.00 | 39 | 1008.5 |
| 20260504000948 | 30 | 117 | 4.8 | 9.7 | 0.00 | 0.00 | 0.00 | 37 | 1008.1 |
| 20260504000048 | 30 | 119 | 3.2 | 11.3 | 0.00 | 0.00 | 0.00 | 34 | 1008.2 |
| 20260503235147 | 31 | 121 | 3.2 | 9.7 | 0.00 | 0.00 | 0.00 | 37 | 1008.2 |
| 20260503234600 | 31 | 113 | 1.6 | 8.0 | 0.00 | 0.00 | 0.00 | 35 | 1008.7 |
| 20260503234248 | 31 | 114 | 3.2 | 9.7 | 0.00 | 0.00 | 0.00 | 36 | 1008.3 |
| 20260503233001 | 30 | 118 | 1.6 | 11.3 | 0.00 | 0.00 | 0.00 | 37 | 1008.9 |
| 20260503232447 | 31 | 133 | 3.2 | 6.4 | 0.00 | 0.00 | 0.00 | 36 | 1008.6 |
| 20260503231600 | 30 | 117 | 1.6 | 9.7 | 0.00 | 0.00 | 0.00 | 37 | 1009.0 |
| 20260503231548 | 30 | 128 | 1.6 | 9.7 | 0.00 | 0.00 | 0.00 | 37 | 1008.6 |
| 20260503230648 | 30 | 130 | 4.8 | 9.7 | 0.00 | 0.00 | 0.00 | 38 | 1008.6 |
| 20260503230001 | 29 | 174 | 3.2 | 14.5 | 0.00 | 0.00 | 0.00 | 39 | 1009.2 |
| 20260503224601 | 29 | 139 | 6.4 | 12.9 | 0.00 | 0.00 | 0.00 | 39 | 1009.3 |
| 20260503223947 | 30 | 121 | 3.2 | 16.1 | 0.00 | 0.00 | 0.00 | 40 | 1008.9 |
| 20260503223047 | 30 | 122 | 3.2 | 16.1 | 0.00 | 0.00 | 0.00 | 40 | 1009.1 |
| 20260503223001 | 30 | 124 | 4.8 | 9.7 | 0.00 | 0.00 | 0.00 | 40 | 1009.4 |
| 20260503222147 | 30 | 121 | 3.2 | 14.5 | 0.00 | 0.00 | 0.00 | 40 | 1009.2 |
| 20260503221600 | 29 | 139 | 4.8 | 14.5 | 0.00 | 0.00 | 0.00 | 39 | 1009.8 |
| 20260503221248 | 30 | 121 | 4.8 | 14.5 | 0.00 | 0.00 | 0.00 | 42 | 1009.4 |
| 20260503220347 | 29 | 114 | 3.2 | 12.9 | 0.00 | 0.00 | 0.00 | 40 | 1009.5 |
| 20260503220001 | 28 | 121 | 3.2 | 12.9 | 0.00 | 0.00 | 0.00 | 40 | 1009.9 |
| 20260503215448 | 29 | 110 | 4.8 | 12.9 | 0.00 | 0.00 | 0.00 | 40 | 1009.4 |
| 20260503214602 | 28 | 108 | 1.6 | 12.9 | 0.00 | 0.00 | 0.00 | 41 | 1010.1 |
| 20260503214548 | 28 | 107 | 6.4 | 12.9 | 0.00 | 0.00 | 0.00 | 42 | 1009.6 |
| 20260503213647 | 28 | 109 | 4.8 | 14.5 | 0.00 | 0.00 | 0.00 | 40 | 1009.7 |
| 20260503213003 | 28 | 118 | 6.4 | 14.5 | 0.00 | 0.00 | 0.00 | 43 | 1010.2 |
| 20260503212748 | 28 | 109 | 4.8 | 12.9 | 0.00 | 0.00 | 0.00 | 41 | 1010.0 |
| 20260503211847 | 28 | 113 | 4.8 | 14.5 | 0.00 | 0.00 | 0.00 | 40 | 1009.9 |
| 20260503211601 | 28 | 116 | 3.2 | 14.5 | 0.00 | 0.00 | 0.00 | 41 | 1010.5 |
| 20260503210947 | 28 | 117 | 6.4 | 16.1 | 0.00 | 0.00 | 0.00 | 43 | 1010.1 |
| 20260503210047 | 28 | 108 | 6.4 | 14.5 | 0.00 | 0.00 | 0.00 | 40 | 1010.3 |
| 20260503210001 | 27 | 180 | 3.2 | 14.5 | 0.00 | 0.00 | 0.00 | 41 | 1010.7 |
| 20260503205148 | 27 | 110 | 4.8 | 17.7 | 0.00 | 0.00 | 0.00 | 42 | 1010.3 |
| 20260503204601 | 27 | 87 | 6.4 | 14.5 | 0.00 | 0.00 | 0.00 | 41 | 1010.9 |
| 20260503203348 | 28 | 128 | 4.8 | 12.9 | 0.00 | 0.00 | 0.00 | 42 | 1010.4 |
| 20260503203002 | 27 | 104 | 1.6 | 11.3 | 0.00 | 0.00 | 0.00 | 43 | 1010.8 |
| 20260503202448 | 27 | 122 | 3.2 | 12.9 | 0.00 | 0.00 | 0.00 | 41 | 1010.6 |
| 20260503201601 | 27 | 151 | 0.0 | 14.5 | 0.00 | 0.00 | 0.00 | 44 | 1011.0 |
| 20260503201548 | 28 | 123 | 3.2 | 14.5 | 0.00 | 0.00 | 0.00 | 44 | 1010.5 |
| 20260503200001 | 28 | 131 | 0.0 | 4.8 | 0.00 | 0.00 | 0.00 | 43 | 1011.1 |
| 20260503195748 | 28 | 134 | 1.6 | 4.8 | 0.00 | 0.00 | 0.00 | 43 | 1010.9 |
| 20260503194848 | 27 | 100 | 3.2 | 6.4 | 0.00 | 0.00 | 0.00 | 44 | 1011.1 |
| 20260503194601 | 27 | 79 | 1.6 | 8.0 | 0.00 | 0.00 | 0.00 | 46 | 1011.6 |
| 20260503193948 | 26 | 120 | 4.8 | 12.9 | 0.00 | 0.00 | 0.00 | 46 | 1011.2 |
| 20260503193048 | 26 | 124 | 3.2 | 14.5 | 0.00 | 0.00 | 0.00 | 46 | 1011.3 |
| 20260503193003 | 26 | 125 | 6.4 | 14.5 | 0.00 | 0.00 | 0.00 | 43 | 1011.8 |
| 20260503192148 | 26 | 120 | 3.2 | 16.1 | 0.00 | 0.00 | 0.00 | 46 | 1011.4 |
| 20260503191609 | 26 | 115 | 1.6 | 16.1 | 0.00 | 0.00 | 0.00 | 48 | 1011.9 |
| 20260503190348 | 26 | 127 | 3.2 | 11.3 | 0.00 | 0.00 | 0.00 | 47 | 1011.6 |
| 20260503190001 | 26 | 142 | 3.2 | 11.3 | 0.00 | 0.00 | 0.00 | 46 | 1012.2 |
| 20260503185448 | 26 | 126 | 1.6 | 9.7 | 0.00 | 0.00 | 0.00 | 47 | 1011.5 |
| 20260503184612 | 25 | 129 | 1.6 | 6.4 | 0.00 | 0.00 | 0.00 | 50 | 1012.0 |
| 20260503184548 | 25 | 139 | 3.2 | 6.4 | 0.00 | 0.00 | 0.00 | 50 | 1011.5 |
| 20260503183648 | 25 | 114 | 4.8 | 20.9 | 0.00 | 0.00 | 0.00 | 51 | 1011.6 |
| 20260503183002 | 24 | 98 | 6.4 | 20.9 | 0.00 | 0.00 | 0.00 | 50 | 1012.1 |
| 20260503182748 | 24 | 120 | 3.2 | 12.9 | 0.00 | 0.00 | 0.00 | 52 | 1011.6 |
| 20260503181848 | 23 | 106 | 4.8 | 12.9 | 0.00 | 0.00 | 0.00 | 53 | 1011.7 |
| 20260503181611 | 23 | 105 | 4.8 | 12.9 | 0.00 | 0.00 | 0.00 | 53 | 1012.3 |
| 20260503180948 | 23 | 97 | 3.2 | 12.9 | 0.00 | 0.00 | 0.00 | 55 | 1011.9 |
| 20260503180048 | 23 | 110 | 1.6 | 11.3 | 0.00 | 0.00 | 0.00 | 55 | 1011.8 |
| 20260503180003 | 22 | 99 | 3.2 | 11.3 | 0.00 | 0.00 | 0.00 | 55 | 1012.4 |
| 20260503175148 | 22 | 107 | 4.8 | 14.5 | 0.00 | 0.00 | 0.00 | 57 | 1011.8 |
| 20260503174603 | 22 | 104 | 0.0 | 16.1 | 0.00 | 0.00 | 0.00 | 59 | 1012.4 |
| 20260503174248 | 22 | 100 | 3.2 | 16.1 | 0.00 | 0.00 | 0.00 | 56 | 1012.1 |
| 20260503173347 | 22 | 96 | 3.2 | 12.9 | 0.00 | 0.00 | 0.00 | 59 | 1012.0 |
| 20260503173001 | 21 | 79 | 1.6 | 8.0 | 0.00 | 0.00 | 0.00 | 60 | 1012.5 |
| 20260503171600 | 21 | 106 | 1.6 | 14.5 | 0.00 | 0.00 | 0.00 | 62 | 1012.6 |
| 20260503171548 | 21 | 101 | 4.8 | 12.9 | 0.00 | 0.00 | 0.00 | 62 | 1012.2 |
| 20260503170648 | 21 | 108 | 3.2 | 12.9 | 0.00 | 0.00 | 0.00 | 60 | 1012.3 |
| 20260503150948 | 14 | 0 | 0.0 | 0.0 | 0.00 | 0.00 | 0.00 | 83 | 1012.5 |
| 20260503131248 | 7 | 0 | 0.0 | 0.0 | 0.00 | 0.00 | 0.00 | 96 | 1012.3 |
| 20260503130348 | 7 | 0 | 0.0 | 0.0 | 0.00 | 0.00 | 0.00 | 95 | 1012.2 |
| 20260503081630 | 10 | 89 | 0.0 | 0.0 | 0.00 | 0.00 | 0.00 | 87 | 1013.3 |
| 20260503080648 | 11 | 0 | 0.0 | 0.0 | 0.00 | 0.00 | 0.00 | 88 | 1013.0 |
| 20260503072149 | 11 | 0 | 0.0 | 0.0 | 0.00 | 0.00 | 0.00 | 84 | 1013.2 |
| 20260503071602 | 11 | 89 | 0.0 | 0.0 | 0.00 | 0.00 | 0.00 | 83 | 1013.6 |
| 20260503071248 | 12 | 0 | 0.0 | 0.0 | 0.00 | 0.00 | 0.00 | 83 | 1013.1 |
| 20260503070348 | 12 | 0 | 0.0 | 0.0 | 0.00 | 0.00 | 0.00 | 83 | 1013.0 |
| 20260503054505 | 13 | 72 | 0.0 | 0.0 | 0.00 | 0.00 | 0.00 | 75 | 1013.3 |
| 20260503054248 | 14 | 0 | 0.0 | 0.0 | 0.00 | 0.00 | 0.00 | 74 | 1012.8 |
| 20260503053348 | 15 | 0 | 0.0 | 0.0 | 0.00 | 0.00 | 0.00 | 72 | 1013.0 |
| 20260503053103 | 15 | 72 | 0.0 | 0.0 | 0.00 | 0.00 | 0.00 | 70 | 1013.5 |
| 20260503052448 | 15 | 0 | 0.0 | 0.0 | 0.00 | 0.00 | 0.00 | 69 | 1013.0 |
| 20260503051549 | 16 | 0 | 0.0 | 0.0 | 0.00 | 0.00 | 0.00 | 68 | 1012.9 |
| 20260503051502 | 15 | 72 | 0.0 | 0.0 | 0.00 | 0.00 | 0.00 | 67 | 1013.4 |
| 20260503050648 | 16 | 0 | 0.0 | 0.0 | 0.00 | 0.00 | 0.00 | 68 | 1012.8 |
| 20260503050104 | 16 | 71 | 0.0 | 0.0 | 0.00 | 0.00 | 0.00 | 67 | 1013.3 |
| 20260503045748 | 16 | 0 | 0.0 | 0.0 | 0.00 | 0.00 | 0.00 | 67 | 1012.8 |
| 20260503044849 | 17 | 0 | 0.0 | 0.0 | 0.00 | 0.00 | 0.00 | 64 | 1012.7 |
| 20260503044503 | 17 | 72 | 0.0 | 0.0 | 0.00 | 0.00 | 0.00 | 62 | 1013.1 |
| 20260503043948 | 18 | 0 | 0.0 | 0.0 | 0.00 | 0.00 | 0.00 | 60 | 1012.7 |
| 20260503043115 | 18 | 72 | 0.0 | 0.0 | 0.00 | 0.00 | 0.00 | 60 | 1013.1 |
| 20260503043049 | 18 | 0 | 0.0 | 1.6 | 0.00 | 0.00 | 0.00 | 60 | 1012.5 |
| 20260503042148 | 18 | 0 | 0.0 | 3.2 | 0.00 | 0.00 | 0.00 | 59 | 1012.3 |
| 20260503041501 | 18 | 80 | 0.0 | 3.2 | 0.00 | 0.00 | 0.00 | 59 | 1012.8 |
| 20260503040348 | 19 | 80 | 0.0 | 1.6 | 0.00 | 0.00 | 0.00 | 58 | 1012.2 |
| 20260503040103 | 19 | 81 | 0.0 | 3.2 | 0.00 | 0.00 | 0.00 | 57 | 1012.5 |
| 20260503035449 | 20 | 93 | 1.6 | 4.8 | 0.00 | 0.00 | 0.00 | 56 | 1011.8 |
| 20260503034549 | 20 | 97 | 3.2 | 6.4 | 0.00 | 0.00 | 0.00 | 54 | 1011.6 |
| 20260503034502 | 20 | 72 | 1.6 | 6.4 | 0.00 | 0.00 | 0.00 | 54 | 1012.2 |
| 20260503033649 | 21 | 99 | 3.2 | 11.3 | 0.00 | 0.00 | 0.00 | 53 | 1011.7 |
| 20260503033140 | 21 | 102 | 1.6 | 6.4 | 0.00 | 0.00 | 0.00 | 53 | 1012.0 |
| 20260503032749 | 21 | 96 | 1.6 | 6.4 | 0.00 | 0.00 | 0.00 | 52 | 1011.5 |
| 20260503031502 | 21 | 105 | 0.0 | 8.0 | 0.00 | 0.00 | 0.00 | 51 | 1011.8 |
| 20260503030114 | 22 | 92 | 0.0 | 6.4 | 0.00 | 0.00 | 0.00 | 50 | 1011.7 |
| 20260503030049 | 22 | 104 | 3.2 | 6.4 | 0.00 | 0.00 | 0.00 | 51 | 1011.2 |
| 20260503025148 | 22 | 101 | 1.6 | 11.3 | 0.00 | 0.00 | 0.00 | 50 | 1011.1 |
| 20260503024502 | 22 | 75 | 3.2 | 11.3 | 0.00 | 0.00 | 0.00 | 49 | 1011.7 |
| 20260503024248 | 22 | 0 | 0.0 | 8.0 | 0.00 | 0.00 | 0.00 | 50 | 1011.2 |
| 20260503023349 | 23 | 0 | 0.0 | 4.8 | 0.00 | 0.00 | 0.00 | 49 | 1011.0 |
| 20260503023115 | 23 | 109 | 0.0 | 8.0 | 0.00 | 0.00 | 0.00 | 50 | 1011.5 |
| 20260503022449 | 23 | 106 | 1.6 | 8.0 | 0.00 | 0.00 | 0.00 | 49 | 1010.9 |
| 20260503021548 | 24 | 107 | 1.6 | 8.0 | 0.00 | 0.00 | 0.00 | 46 | 1011.0 |
| 20260503021505 | 24 | 111 | 0.0 | 8.0 | 0.00 | 0.00 | 0.00 | 47 | 1011.4 |
| 20260503020649 | 25 | 113 | 3.2 | 6.4 | 0.00 | 0.00 | 0.00 | 46 | 1011.0 |
| 20260503020104 | 25 | 108 | 1.6 | 16.1 | 0.00 | 0.00 | 0.00 | 46 | 1011.4 |
| 20260503015749 | 25 | 106 | 3.2 | 16.1 | 0.00 | 0.00 | 0.00 | 46 | 1011.1 |
| 20260503014849 | 25 | 105 | 3.2 | 11.3 | 0.00 | 0.00 | 0.00 | 45 | 1010.9 |
| 20260503014503 | 25 | 103 | 1.6 | 11.3 | 0.00 | 0.00 | 0.00 | 45 | 1011.3 |
| 20260503013949 | 25 | 104 | 3.2 | 11.3 | 0.00 | 0.00 | 0.00 | 46 | 1010.9 |
| 20260503013102 | 25 | 100 | 3.2 | 12.9 | 0.00 | 0.00 | 0.00 | 44 | 1011.4 |
| 20260503013049 | 25 | 110 | 3.2 | 16.1 | 0.00 | 0.00 | 0.00 | 44 | 1011.0 |
| 20260503012149 | 25 | 121 | 4.8 | 16.1 | 0.00 | 0.00 | 0.00 | 44 | 1011.1 |
| 20260503011504 | 25 | 131 | 4.8 | 12.9 | 0.00 | 0.00 | 0.00 | 45 | 1011.5 |
| 20260503011249 | 25 | 116 | 4.8 | 16.1 | 0.00 | 0.00 | 0.00 | 46 | 1011.0 |
| 20260503010349 | 25 | 115 | 4.8 | 9.7 | 0.00 | 0.00 | 0.00 | 45 | 1011.0 |
| 20260503010105 | 25 | 136 | 1.6 | 9.7 | 0.00 | 0.00 | 0.00 | 46 | 1011.5 |
| 20260503005449 | 25 | 123 | 4.8 | 14.5 | 0.00 | 0.00 | 0.00 | 46 | 1011.0 |
| 20260503004549 | 25 | 119 | 3.2 | 17.7 | 0.00 | 0.00 | 0.00 | 45 | 1011.1 |
| 20260503004503 | 25 | 117 | 6.4 | 17.7 | 0.00 | 0.00 | 0.00 | 44 | 1011.6 |
| 20260503003649 | 25 | 118 | 4.8 | 12.9 | 0.00 | 0.00 | 0.00 | 46 | 1011.3 |
| 20260503003102 | 25 | 111 | 3.2 | 14.5 | 0.00 | 0.00 | 0.00 | 48 | 1011.8 |
| 20260503002749 | 25 | 108 | 6.4 | 14.5 | 0.00 | 0.00 | 0.00 | 48 | 1011.3 |